Weather in Koutsounari

Greece     35°00′54″N   25°49′42″E
temp.,
°C
wind,
m/s
gust,
m/s
humid.,
%
clouds,
%
prec.,
mm/h
press.,
hPa
HPBL,
m
1 december, wed
wed123:00+15nnw335537 0.0 1017476
02:00+14nw23511 0.0 1018593
05:00+13wnw124811 0.0 1017791
08:00+14nnw21483 0.0 1018323
11:00+15nne12420 0.0 10191134
14:00+16ssw32421 0.0 10181003
17:00+15w01450 0.0 1018798
20:00+14n32540 0.0 1018219
2 december, thu
thu223:00+14n22600 0.0 1019204
02:00+14wnw11602 0.0 1019269
05:00+13wnw33650 0.0 1018357
08:00+14w56689 0.0 1018664
11:00+17wsw685916 0.0 10191248
14:00+18wsw995615 0.1 10171390
17:00+17wsw67600 0.0 1017871
20:00+15w56640 0.0 1018506
3 december, fri
fri323:00+16wsw56700 0.0 1019647
02:00+16sw5673100 0.0 1018735
05:00+16wsw577998 0.3 1017578
08:00+17sw7973100 0.6 1018954
11:00+18sw81066100 0.4 10191266
14:00+18sw91065100 0.7 10171412
17:00+17ssw7965100 0.1 10171183
20:00+17ssw7963100 0.1 10171063
4 december, sat
sat423:00+18ssw6862100 0.0 10171150
02:00+17sw4669100 0.1 1016752
05:00+17wsw456898 0.1 1015555
08:00+18ssw466440 0.1 1014915
11:00+19sw81057100 0.1 10141539
14:00+19ssw895566 0.1 10111271
17:00+18ssw676172 0.0 10101115
20:00+16wsw677487 1.3 1011654
5 december, sun
sun523:00+15n227594 2.0 1011268
02:00+14n567881 5.2 1009345
05:00+13n56778 0.0 1010294
08:00+14nnw45741 0.0 1012290
11:00+16ssw01600 0.0 1014620
14:00+17sse226311 0.0 1014601
17:00+16wsw44680 0.0 1015456
20:00+15wsw45660 0.0 1016542